This is the latest recevied weather packets stored in our database for station/object KQ4KX. If no packets are shown the sender has not sent any weather packets the latest 10 day(s).
| Time | Temp. | Humidity | Pressure | Rain* | Wind** | Luminosity | Snow |
|---|---|---|---|---|---|---|---|
| 1788307953 | 27.22° C | 90% | 1016.1 hPa | 0 mm | - | - | - |
| 1788307353 | 27.22° C | 90% | 1016.1 hPa | 0 mm | - | - | - |
| 1788305193 | 27.78° C | 87% | 1015.8 hPa | 0 mm | - | - | - |
| 1788304893 | 27.78° C | 87% | 1015.9 hPa | 0 mm | - | - | - |
| 1788304263 | 28.33° C | 86% | 1015.7 hPa | 0 mm | - | - | - |
| 1788303963 | 28.33° C | 85% | 1015.6 hPa | 0 mm | - | - | - |
| 1788303633 | 28.33° C | 83% | 1015.7 hPa | 0 mm | - | - | - |
| 1788303303 | 28.33° C | 83% | 1015.7 hPa | 0 mm | - | - | - |
| 1788303003 | 28.33° C | 83% | 1015.6 hPa | 0 mm | - | - | - |
| 1788302888 | 28.89° C | 84% | 1015.7 hPa | 0 mm | - | - | - |
| 1788302703 | 28.89° C | 84% | 1015.7 hPa | 0 mm | - | - | - |
| 1788302403 | 28.89° C | 86% | 1015.7 hPa | 0 mm | - | - | - |
| 1788302073 | 28.89° C | 84% | 1015.7 hPa | 0 mm | - | - | - |
| 1788301773 | 29.44° C | 84% | 1015.6 hPa | 0 mm | - | - | - |
| 1788301443 | 29.44° C | 84% | 1015.7 hPa | 0 mm | - | - | - |
| 1788301298 | 29.44° C | 83% | 1015.5 hPa | 0 mm | - | - | - |
| 1788301113 | 29.44° C | 83% | 1015.5 hPa | 0 mm | - | - | - |
| 1788300813 | 29.44° C | 83% | 1015.4 hPa | 0 mm | - | - | - |
| 1788300352 | 29.44° C | 82% | 1015.4 hPa | 0 mm | - | - | - |
| 1788300153 | 29.44° C | 82% | 1015.4 hPa | 0 mm | - | - | - |
| 1788298893 | 30° C | 79% | 1015.4 hPa | 0 mm | - | - | - |
| 1788298700 | 30° C | 79% | 1015.4 hPa | 0 mm | - | - | - |
| 1788298563 | 30° C | 79% | 1015.4 hPa | 0 mm | - | - | - |
| 1788298233 | 30° C | 79% | 1015.4 hPa | 0 mm | - | - | - |
| 1788297903 | 30.56° C | 78% | 1015.3 hPa | 0 mm | - | - | - |
* Rain latest hour (hover to see other rain measurements)
** Current wind speed in m/s (hover to see current wind gust speed)